This is the latest recevied weather packets stored in our database for station/object SV7RNH. If no packets are shown the sender has not sent any weather packets the latest 1 day(s).
| Time | Temp. | Humidity | Pressure | Rain* | Wind** | Luminosity | Snow |
|---|---|---|---|---|---|---|---|
| 1778048404 | 21.67° C | 42% | 1017.5 hPa | 0 mm | 0.89 m/s, 225° | - | - |
| 1778048104 | 22.22° C | 42% | 1017.5 hPa | 0 mm | 0.45 m/s, 225° | - | - |
| 1778047803 | 21.67° C | 43% | 1017.4 hPa | 0 mm | 0.45 m/s, 225° | - | - |
| 1778047504 | 21.11° C | 44% | 1017.4 hPa | 0 mm | 0 m/s | - | - |
| 1778047204 | 21.11° C | 43% | 1017.5 hPa | 0 mm | 0.89 m/s, 225° | - | - |
| 1778046904 | 20.56° C | 43% | 1017.5 hPa | 0 mm | 0.89 m/s, 225° | - | - |
| 1778046604 | 20° C | 44% | 1017.5 hPa | 0 mm | 0 m/s | - | - |
| 1778046304 | 20° C | 45% | 1017.4 hPa | 0 mm | 0 m/s | - | - |
| 1778046003 | 20° C | 45% | 1017.3 hPa | 0 mm | 0 m/s | - | - |
| 1778045703 | 20° C | 45% | 1017.4 hPa | 0 mm | 0 m/s | - | - |
| 1778045404 | 19.44° C | 46% | 1017.4 hPa | 0 mm | 0 m/s | - | - |
| 1778045103 | 19.44° C | 45% | 1017.4 hPa | 0 mm | 0 m/s | - | - |
| 1778044803 | 19.44° C | 46% | 1017.5 hPa | 0 mm | 0.45 m/s, 225° | - | - |
| 1778044504 | 19.44° C | 46% | 1017.5 hPa | 0 mm | 0 m/s | - | - |
| 1778044204 | 19.44° C | 46% | 1017.6 hPa | 0 mm | 0 m/s | - | - |
| 1778043903 | 19.44° C | 45% | 1017.5 hPa | 0 mm | 0 m/s | - | - |
| 1778043603 | 19.44° C | 45% | 1017.3 hPa | 0 mm | 0 m/s | - | - |
| 1778043304 | 18.89° C | 46% | 1017.5 hPa | 0 mm | 0 m/s | - | - |
| 1778043003 | 18.89° C | 46% | 1017.4 hPa | 0 mm | 0 m/s | - | - |
| 1778042703 | 18.33° C | 48% | 1017.3 hPa | 0 mm | 0.45 m/s, 225° | - | - |
| 1778042404 | 18.33° C | 49% | 1017.3 hPa | 0 mm | 0.45 m/s, 225° | - | - |
| 1778042104 | 17.78° C | 50% | 1017.2 hPa | 0 mm | 0 m/s | - | - |
| 1778041803 | 17.22° C | 52% | 1017.2 hPa | 0 mm | 0.45 m/s, 229° | - | - |
| 1778041503 | 16.11° C | 53% | 1017.1 hPa | 0 mm | 0 m/s | - | - |
| 1778041204 | 15.56° C | 53% | 1017.1 hPa | 0 mm | 0 m/s | - | - |
* Rain latest hour (hover to see other rain measurements)
** Current wind speed in m/s (hover to see current wind gust speed)